Danbury, CT

1:18 AM EST on February 27, 2017 (GMT -0500)
Danbury Municipal

Weather History for KDXR - December, 2013

Change the Weather History Date:

Saturday, December 7, 2013

  Actual Average Record
Temperature  
Mean Temperature 32 °F -  
Max Temperature 37 °F 44 °F 73 °F (1998)
Min Temperature 28 °F 26 °F 3 °F (1964)
Degree Days  
Heating Degree Days 32    
Moisture  
Dew Point 25 °F    
Average Humidity 69    
Maximum Humidity 82    
Minimum Humidity 54    
Precipitation  
Precipitation 0.04 in - - ()
Sea Level Pressure  
Sea Level Pressure 30.31 in    
Wind  
Wind Speed 5 mph (NNW)    
Max Wind Speed 13 mph    
Max Gust Speed -    
Visibility 10 miles    
Events Rain    
Averages and records for this station are not official NWS values.
T = Trace of Precipitation, MM = Missing Value Source: NWS Daily Summary

Daily Weather History Graph

Daily Weather History Graph

Search for Another Location

Airport or City:

Trip Planner

Search our weather history database for the weather conditions in past years. The results will help you decide how hot, cold, wet, or windy it might be!

Date:

Astronomy

Dec. 07, 2013 Rise Set
Actual Time 7:06 AM EST 4:24 PM EST
Civil Twilight 6:35 AM EST 4:55 PM EST
Nautical Twilight 6:00 AM EST 5:30 PM EST
Astronomical Twilight 5:27 AM EST 6:03 PM EST
Moon 10:47 AM EST (12/7) 10:05 PM EST (12/7)
Length of Visible Light 10h 19m
Length of Day
9h 17m
Waxing Crescent, 29% of the Moon is Illuminated
Dec 7
Waxing Crescent
Dec 9
First Quarter
Dec 17
Full
Dec 25
Last Quarter
Jan 1
New

Hourly Weather History & Observations

Time (EST) Temp. Windchill Dew Point Humidity Pressure Visibility Wind Dir Wind Speed Gust Speed Precip Events Conditions
12:53 AM 34.0 °F 28.0 °F 28.0 °F 79% 30.13 in 10.0 mi North 6.9 mph - 0.03 in Rain Light Rain
1:53 AM 34.0 °F 29.8 °F 28.0 °F 79% 30.12 in 10.0 mi North 4.6 mph - 0.00 in   Overcast
2:53 AM 33.1 °F 27.7 °F 28.0 °F 82% 30.17 in 4.0 mi NNW 5.8 mph - 0.01 in Rain Light Rain
3:45 AM 33.8 °F 29.6 °F 28.4 °F 81% 30.17 in 10.0 mi North 4.6 mph - 0.00 in   Overcast
3:53 AM 34.0 °F 28.8 °F 28.0 °F 79% 30.18 in 9.0 mi North 5.8 mph - 0.00 in   Overcast
4:53 AM 33.1 °F 30.0 °F 28.0 °F 82% 30.19 in 10.0 mi North 3.5 mph - 0.00 in   Overcast
5:53 AM 34.0 °F 29.8 °F 27.0 °F 75% 30.21 in 10.0 mi North 4.6 mph - N/A   Overcast
6:53 AM 34.0 °F 28.8 °F 27.0 °F 75% 30.24 in 10.0 mi NNW 5.8 mph - N/A   Overcast
7:53 AM 34.0 °F - 27.0 °F 75% 30.26 in 10.0 mi Calm Calm - N/A   Overcast
8:14 AM 33.8 °F - 26.6 °F 75% 30.26 in 10.0 mi Calm Calm - N/A   Overcast
8:53 AM 35.1 °F 32.2 °F 28.0 °F 76% 30.29 in 10.0 mi Variable 3.5 mph - N/A   Overcast
9:53 AM 35.1 °F 29.3 °F 28.0 °F 76% 30.31 in 10.0 mi NW 6.9 mph - N/A   Overcast
10:18 AM 35.6 °F 30.7 °F 28.4 °F 75% 30.30 in 10.0 mi NW 5.8 mph - N/A   Scattered Clouds
10:41 AM 35.6 °F 29.2 °F 26.6 °F 70% 30.30 in 10.0 mi NNW 8.1 mph - N/A   Mostly Cloudy
10:53 AM 36.0 °F 31.1 °F 28.0 °F 73% 30.31 in 10.0 mi North 5.8 mph - N/A   Overcast
11:20 AM 35.6 °F 29.9 °F 26.6 °F 70% 30.30 in 10.0 mi NW 6.9 mph - N/A   Overcast
11:53 AM 36.0 °F 29.6 °F 26.1 °F 67% 30.31 in 10.0 mi WNW 8.1 mph - N/A   Overcast
12:11 PM 35.6 °F 30.7 °F 26.6 °F 70% 30.30 in 10.0 mi Variable 5.8 mph - N/A   Overcast
12:20 PM 35.6 °F 30.7 °F 26.6 °F 70% 30.30 in 10.0 mi NNW 5.8 mph - N/A   Overcast
12:31 PM 35.6 °F 32.8 °F 26.6 °F 70% 30.30 in 10.0 mi NW 3.5 mph - N/A   Overcast
12:39 PM 35.6 °F 30.7 °F 26.6 °F 70% 30.30 in 10.0 mi NW 5.8 mph - N/A   Overcast
12:53 PM 36.0 °F 31.1 °F 27.0 °F 70% 30.31 in 10.0 mi NNW 5.8 mph - N/A   Overcast
1:53 PM 36.0 °F 31.1 °F 24.1 °F 62% 30.31 in 10.0 mi Variable 5.8 mph - N/A   Mostly Cloudy
2:53 PM 37.0 °F 28.9 °F 23.0 °F 57% 30.31 in 10.0 mi North 12.7 mph - N/A   Mostly Cloudy
3:53 PM 37.0 °F 32.4 °F 21.9 °F 54% 30.34 in 10.0 mi NNW 5.8 mph - N/A   Overcast
4:53 PM 34.0 °F 31.0 °F 21.9 °F 61% 30.36 in 10.0 mi NE 3.5 mph - N/A   Clear
5:53 PM 30.9 °F - 21.0 °F 67% 30.39 in 10.0 mi Calm Calm - N/A   Clear
6:53 PM 30.9 °F - 19.0 °F 61% 30.42 in 10.0 mi Calm Calm - N/A   Clear
7:53 PM 30.9 °F - 18.0 °F 59% 30.46 in 10.0 mi Calm Calm - N/A   Clear
8:53 PM 30.9 °F 26.2 °F 18.0 °F 59% 30.48 in 10.0 mi NW 4.6 mph - N/A   Clear
9:53 PM 28.9 °F 25.2 °F 15.1 °F 56% 30.49 in 10.0 mi West 3.5 mph - N/A   Clear
10:53 PM 28.9 °F 25.2 °F 15.1 °F 56% 30.51 in 10.0 mi WNW 3.5 mph - N/A   Clear
11:53 PM 28.0 °F 24.2 °F 16.0 °F 61% 30.53 in 10.0 mi NW 3.5 mph - N/A   Clear